Emporia, KS

11:03 PM CST on February 06, 2016 (GMT -0600)
Emporia Municipal

Weather History for KEMP - January, 2014

Change the Weather History Date:

Sunday, January 26, 2014

  Actual Average Record
Temperature  
Mean Temperature 40 °F 31 °F  
Max Temperature 58 °F 42 °F 66 °F (2015)
Min Temperature 22 °F 21 °F 10 °F (2004)
Degree Days  
Heating Degree Days 25 34  
Month to date heating degree days 937 884  
Since 1 July heating degree days 3073 2817  
Cooling Degree Days 0 0  
Month to date cooling degree days 0 0  
Year to date cooling degree days 0 0  
Moisture  
Dew Point 24 °F    
Average Humidity 50    
Maximum Humidity 75    
Minimum Humidity 25    
Precipitation  
Precipitation 0.00 in 0.03 in 0.02 in (2013)
Month to date precipitation 0.12 0.45  
Year to date precipitation 0.12 0.45  
Sea Level Pressure  
Sea Level Pressure 29.83 in    
Wind  
Wind Speed 17 mph (NW)    
Max Wind Speed 37 mph    
Max Gust Speed 49 mph    
Visibility 10 miles    
Events      
T = Trace of Precipitation, MM = Missing Value Source: NWS Daily Summary

Daily Weather History Graph

Daily Weather History Graph

Search for Another Location

Airport or City:

Trip Planner

Search our weather history database for the weather conditions in past years. The results will help you decide how hot, cold, wet, or windy it might be!

Date:

Astronomy

Jan. 26, 2014 Rise Set
Actual Time 7:34 AM CST 5:40 PM CST
Civil Twilight 7:06 AM CST 6:08 PM CST
Nautical Twilight 6:34 AM CST 6:40 PM CST
Astronomical Twilight 6:03 AM CST 7:12 PM CST
Moon 3:12 AM CST (1/26) 1:31 PM CST (1/26)
Length of Visible Light 11h 02m
Length of Day
10h 06m
Waning Crescent, 23% of the Moon is Illuminated
Jan 26
Waning Crescent
Jan 30
New
Feb 6
First Quarter
Feb 14
Full
Feb 22
Last Quarter

Hourly Weather History & Observations

Time (CST) Temp. Windchill Dew Point Humidity Pressure Visibility Wind Dir Wind Speed Gust Speed Precip Events Conditions
12:53 AM 37.0 °F 27.7 °F 28.9 °F 73% 29.77 in 10.0 mi South 16.1 mph - N/A   Clear
1:53 AM 42.1 °F 33.6 °F 30.0 °F 62% 29.74 in 10.0 mi SSW 18.4 mph 24.2 mph N/A   Clear
2:53 AM 44.1 °F 35.2 °F 28.9 °F 55% 29.73 in 10.0 mi SW 23.0 mph 32.2 mph N/A   Clear
3:53 AM 44.1 °F 33.8 °F 30.0 °F 58% 29.73 in 10.0 mi SW 31.1 mph 36.8 mph N/A   Clear
4:53 AM 44.1 °F 35.7 °F 28.9 °F 55% 29.73 in 10.0 mi WSW 20.7 mph 29.9 mph N/A   Clear
5:53 AM 39.0 °F 31.8 °F 28.9 °F 67% 29.76 in 10.0 mi WNW 11.5 mph 20.7 mph N/A   Clear
6:53 AM 36.0 °F 29.6 °F 28.9 °F 76% 29.75 in 10.0 mi WSW 8.1 mph - N/A   Clear
7:53 AM 39.9 °F 32.9 °F 28.9 °F 65% 29.75 in 10.0 mi West 11.5 mph - N/A   Clear
8:53 AM 43.0 °F 36.8 °F 28.9 °F 58% 29.77 in 10.0 mi West 11.5 mph - N/A   Clear
9:53 AM 48.0 °F - 28.9 °F 48% 29.78 in 10.0 mi NW 10.4 mph 21.9 mph N/A   Clear
10:53 AM 53.1 °F - 30.0 °F 41% 29.78 in 10.0 mi NNW 16.1 mph 21.9 mph N/A   Clear
11:53 AM 54.0 °F - 28.0 °F 37% 29.77 in 10.0 mi NNW 18.4 mph 26.5 mph N/A   Clear
12:53 PM 55.9 °F - 27.0 °F 33% 29.74 in 10.0 mi NNW 19.6 mph 27.6 mph N/A   Clear
1:53 PM 57.0 °F - 25.0 °F 29% 29.71 in 10.0 mi NW 15.0 mph - N/A   Clear
2:53 PM 57.9 °F - 23.0 °F 26% 29.71 in 10.0 mi NNW 15.0 mph - N/A   Clear
3:53 PM 57.9 °F - 24.1 °F 27% 29.70 in 10.0 mi NNW 12.7 mph - N/A   Clear
4:53 PM 55.9 °F - 25.0 °F 30% 29.70 in 10.0 mi NNW 10.4 mph - N/A   Clear
5:53 PM 48.0 °F - 25.0 °F 41% 29.74 in 10.0 mi NNW 6.9 mph - N/A   Clear
6:53 PM 48.9 °F - 25.0 °F 39% 29.80 in 10.0 mi NW 6.9 mph - N/A   Overcast
7:07 PM 43.0 °F 31.8 °F 30.9 °F 62% 29.86 in 8.0 mi North 34.5 mph 48.3 mph N/A   Squalls
7:42 PM 36.0 °F 23.5 °F 28.0 °F 73% 29.95 in 10.0 mi North 27.6 mph 48.3 mph N/A   Overcast
7:53 PM 35.1 °F 23.8 °F 26.1 °F 70% 29.99 in 10.0 mi North 20.7 mph 35.7 mph N/A   Overcast
8:53 PM 34.0 °F 22.1 °F 12.9 °F 42% 30.07 in 10.0 mi North 21.9 mph 47.2 mph N/A   Overcast
9:53 PM 28.0 °F 11.3 °F 1.0 °F 31% 30.14 in 10.0 mi North 34.5 mph 48.3 mph N/A   Overcast
10:53 PM 25.0 °F 8.4 °F 1.0 °F 36% 30.18 in 10.0 mi North 28.8 mph 43.7 mph N/A   Overcast
11:53 PM 21.9 °F 5.8 °F 1.0 °F 40% 30.25 in 10.0 mi North 23.0 mph 35.7 mph N/A   Overcast